Flag for Brazil Weather past 2 weeks in São Paulo, São Paulo, Brazil

Now
68 °F

Overcast.


Feels Like: 68 °F
Forecast: 68 / 75 °F
Wind: 5 mph from Southeast

Location: Sao Paulo Airport

Current Time: May 26, 2015 at 3:56:31 AM

Latest Report: May 26, 2015 at 3:00 AM


Visibility: 4 mi

Pressure: 30.15 "Hg

Humidity: 88%

Dew point: 64 °F

Location of São PauloLocation

Historic Weather in São Paulo — Graph

°F

São Paulo temperature yesterday

Maximum temperature yesterday: 82 °F (at 3:00 PM)
Minimum temperature yesterday: 64 °F (at 4:00 AM)
Average temperature yesterday: 72 °F

Past Weeks' High & Low Weather Summary

 TemperatureHumidityPressure
High82 °F (May 25, 3:00 PM)94% (May 12, 3:00 AM)30.36 "Hg (May 12, 3:00 AM)
Low57 °F (May 12, 6:00 AM)45% (May 25, 3:00 PM)29.92 "Hg (May 11, 4:00 AM)
Average65 °F77%30.20 "Hg
* Reported May 11 3:00 AM — May 26 3:00 AM, São Paulo, Weather by CustomWeather, © 2015

Note: Actual official high and low records may vary slightly from our data, if they occured in-between our weather recording intervals... More about our weather records

Advertising

São Paulo weather history for previous 24 hours

 ConditionsComfort  
Time TempWeatherWind HumidityBarometerVisibility
3:00 AM
Tue, May 26
68 °FOvercast.5 mph88%30.15 "Hg4 mi
2:00 AM68 °FOvercast.6 mph83%30.15 "Hg6 mi
1:00 AM66 °FFog.9 mph88%30.15 "Hg3 mi
12:00 AM68 °FMostly cloudy.6 mph83%30.15 "Hg4 mi
11:00 PM
Mon, May 25
68 °FFog.6 mph88%30.18 "Hg2 mi
10:00 PM68 °FFog.6 mph88%30.18 "Hg2 mi
9:00 PM70 °FFog.9 mph83%30.15 "Hg3 mi
8:00 PM72 °FClear.6 mph78%30.15 "Hg4 mi
7:00 PM72 °FClear.8 mph78%30.12 "Hg4 mi
6:00 PM79 °FClear.3 mph48%30.12 "Hg10 mi
5:00 PM81 °FPassing clouds.7 mph45%30.09 "HgN/A
4:00 PM81 °FPassing clouds.8 mph45%30.09 "HgN/A
3:00 PM82 °FPassing clouds.9 mph45%30.09 "HgN/A
2:00 PM81 °FPassing clouds.9 mph48%30.09 "HgN/A
1:00 PM81 °FSunny.8 mph48%30.12 "Hg10 mi
12:00 PM79 °FSunny.8 mph51%30.12 "Hg10 mi
11:00 AM77 °FSunny.9 mph54%30.15 "Hg10 mi
10:00 AM77 °FSunny.8 mph54%30.15 "Hg10 mi
9:00 AM72 °FSunny.5 mph69%30.15 "Hg10 mi
8:00 AM68 °FSunny.3 mph73%30.15 "Hg10 mi
7:00 AM66 °FSunny.3 mph78%30.12 "Hg10 mi
6:00 AM64 °FSunny.5 mph83%30.12 "Hg10 mi
5:00 AM64 °FClear.2 mph83%30.09 "Hg10 mi
4:00 AM64 °FClear.2 mph83%30.09 "Hg10 mi
3:00 AM66 °FClear.5 mph78%30.09 "Hg10 mi
Weather by CustomWeather, © 2015

See weather overviewHow to use our weather pages